Content
SEND FEEDBACK

Daily
Averages
Monthly
Summary
United States of America

WALDRON, INDIANA


Home > North America > United States > Indiana
Elevation: 820 feet     Latitude: 39 27N     Longitude: 085 40W

WEATHER
 
SELECT A DAY
Number of Records: 175,394;   Date Range: 10/15/98 - 9/30/14
 
SHARE

PRINT THIS DATA

[ ← Previous Day ]
WEATHER ALMANAC - FEBRUARY 21, 2014
[ Next Day → ]
[ °C ]   °F
Weather ElementAverageHighLow
Temperature39.2 °F44.1 °F (3:53 pm)36 °F (6:53 am)
Dewpoint24.4 °F30.9 °F (1:53 am)19 °F (4:53 pm)
Humidity56.6 %76 % (1:53 am)37 % (4:53 pm)
Barometer29.82 in29.95 in (7:53 pm)29.68 in (1:53 am)
Wind Speed17.5 mph31.1 mph (8:53 am)
Wind Gust40.3 mph (8:53 am)
Weather ElementAverage
Visibility10 mi
Wind DirectionSW (222.6 °)

Weather ElementTotal
Precipitation---
Heating Degree Days25 (Base 65)
Averaged from 23 records on February 21, 2014
WEATHER CONDITIONS BREAKOUT
WIND DIRECTION BREAKOUT
WEATHER BY HOUR - FEBRUARY 21, 2014
[ °C ]   °F
Local TimeTemperatureDewpointHumidityBarometerVisibilityWind DirectionWind SpeedGust SpeedPrecipitationEventsConditions
1:53 AM37.9 °F30.9 °F76 %29.68 in10.0 miSW (230°)11.5 mphClear
2:53 AM37.9 °F30.0 °F73 %29.69 in10.0 miSW (230°)17.3 mphClear
3:53 AM37.0 °F28.9 °F73 %29.68 in10.0 miSW (220°)13.8 mphClear
4:53 AM37.9 °F28.9 °F70 %29.70 in10.0 miSSW (210°)18.4 mphClear
5:53 AM37.0 °F28.9 °F73 %29.70 in10.0 miSSW (200°)18.4 mphClear
6:53 AM36.0 °F28.9 °F76 %29.70 in10.0 miSSW (200°)13.8 mphScattered Clouds
7:53 AM37.0 °F27.0 °F67 %29.73 in10.0 miSW (230°)19.6 mph27.6 mphScattered Clouds
8:53 AM37.9 °F24.1 °F57 %29.75 in10.0 miWSW (240°)31.1 mph40.3 mphMostly Cloudy
9:53 AM37.0 °F24.1 °F59 %29.78 in10.0 miWSW (240°)19.6 mphPartly Cloudy
10:53 AM37.9 °F24.1 °F57 %29.80 in10.0 miWSW (250°)19.6 mphClear
11:53 AM41.0 °F26.1 °F55 %29.82 in10.0 miWSW (240°)23.0 mph34.5 mphPartly Cloudy
12:53 PM42.1 °F26.1 °F53 %29.83 in10.0 miWSW (250°)21.9 mph34.5 mphClear
1:53 PM43.0 °F24.1 °F47 %29.84 in10.0 miWSW (250°)23.0 mph31.1 mphClear
2:53 PM43.0 °F19.9 °F40 %29.86 in10.0 miWSW (240°)24.2 mph32.2 mphClear
3:53 PM44.1 °F19.9 °F38 %29.88 in10.0 miWest (260°)21.9 mph31.1 mphClear
4:53 PM44.1 °F19.0 °F37 %29.90 in10.0 miWest (260°)18.4 mph26.5 mphClear
5:53 PM43.0 °F19.9 °F40 %29.92 in10.0 miSW (230°)12.7 mphClear
6:53 PM37.9 °F23.0 °F55 %29.94 in10.0 miSW (220°)9.2 mphClear
7:53 PM37.9 °F21.9 °F53 %29.95 in10.0 miSouth (190°)9.2 mphClear
8:53 PM39.0 °F19.9 °F46 %29.94 in10.0 miSouth (180°)12.7 mphClear
9:53 PM39.0 °F21.0 °F49 %29.93 in10.0 miSouth (180°)12.7 mphClear
10:53 PM37.0 °F21.9 °F54 %29.93 in10.0 miSouth (190°)13.8 mphPartly Cloudy
11:53 PM37.9 °F21.9 °F53 %29.92 in10.0 miSouth (180°)16.1 mphMostly Cloudy
Hourly data recorded from KGEZ, located miles away from Waldron, Indiana







STORIES FROM OUR PARTNERS